Almeria, Spain

6:37 PM CEST on July 21, 2017 (GMT +0200)
Almeria

Weather History for LEAM - July, 2017

Change the Weather History Date:

Monday, July 17, 2017

  Actual Average Record
Temperature  
Mean Temperature 88 °F -  
Max Temperature 97 °F 82 °F 101 °F (2015)
Min Temperature 78 °F 70 °F 66 °F (2003)
Cooling Degree Days 22    
Growing Degree Days 38 (Base 50)    
Moisture  
Dew Point 55 °F    
Average Humidity 32    
Maximum Humidity 47    
Minimum Humidity 18    
Precipitation  
Precipitation 0.00 in 0.00 in - ()
Sea Level Pressure  
Sea Level Pressure 30.00 in    
Wind  
Wind Speed 10 mph ()    
Max Wind Speed 22 mph    
Max Gust Speed -    
Visibility 6.2 miles    
Events      
Averages and records for this station are not official NWS values.
T = Trace of Precipitation, MM = Missing Value Source: Averaged Metar Reports

Daily Weather History Graph

Daily Weather History Graph

Search for Another Location

Airport or City:

Trip Planner

Search our weather history database for the weather conditions in past years. The results will help you decide how hot, cold, wet, or windy it might be!

Date:

Astronomy

Jul. 17, 2017 Rise Set
Actual Time 7:03 AM CEST 9:27 PM CEST
Civil Twilight 6:33 AM CEST 9:57 PM CEST
Nautical Twilight 5:57 AM CEST 10:33 PM CEST
Astronomical Twilight 5:16 AM CEST 11:14 PM CEST
Moon 1:58 AM CEST (7/17) 3:07 PM CEST (7/17)
Length of Visible Light 15h 23m
Length of Day
14h 23m
Last Quarter, 43% of the Moon is Illuminated
Jul 17
Last Quarter
Jul 23
New
Jul 30
First Quarter
Aug 7
Full
Aug 15
Last Quarter

Hourly Weather History & Observations

Time (CEST) Temp. Heat Index Dew Point Humidity Pressure Visibility Wind Dir Wind Speed Gust Speed Precip Events Conditions
12:00 AM 80 °F - 55 °F 32% 30.08 in - NE 8.1 mph - -  
12:00 AM 78.8 °F - 55.4 °F 44% 30.06 in 6.2 mi NE 6.9 mph - N/A   Unknown
12:30 AM 82.4 °F - 51.8 °F 35% 30.06 in 6.2 mi NNE 5.8 mph - N/A   Unknown
1:00 AM 80 °F - 52 °F 27% 30.07 in - NE 4.6 mph - -  
1:00 AM 80.6 °F - 51.8 °F 37% 30.06 in 6.2 mi NE 3.5 mph - N/A   Unknown
1:30 AM 78.8 °F - 57.2 °F 47% 30.06 in 6.2 mi North 3.5 mph - N/A   Unknown
2:00 AM 79 °F - 56 °F 34% 30.06 in - North 2.3 mph - -  
2:00 AM 78.8 °F - 55.4 °F 44% 30.06 in 6.2 mi Variable 1.2 mph - N/A   Unknown
2:30 AM 78.8 °F - 53.6 °F 42% 30.04 in 6.2 mi North 3.5 mph - N/A   Unknown
3:00 AM 79 °F - 53 °F 30% 30.04 in - NNW 8.1 mph - -  
3:00 AM 78.8 °F - 53.6 °F 42% 30.04 in 6.2 mi NNW 6.9 mph - N/A   Unknown
3:30 AM 78.8 °F - 53.6 °F 42% 30.04 in 6.2 mi NNW 11.5 mph - N/A   Unknown
4:00 AM 79 °F - 53 °F 30% 30.03 in - NNW 10.4 mph - -  
4:00 AM 78.8 °F - 53.6 °F 42% 30.01 in 6.2 mi NNW 10.4 mph - N/A   Unknown
4:30 AM 78.8 °F - 53.6 °F 42% 30.01 in 6.2 mi North 8.1 mph - N/A   Unknown
5:00 AM 79 °F - 51 °F 28% 30.02 in 31 mi North 8.1 mph - -   Clear
5:00 AM 78.8 °F - 51.8 °F 39% 30.01 in - North 6.9 mph - N/A   Clear
5:30 AM 78.8 °F - 51.8 °F 39% 30.01 in - NNW 10.4 mph - N/A   Clear
6:00 AM 80 °F - 51 °F 26% 30.03 in - NNW 10.4 mph - -  
6:00 AM 78.8 °F - 51.8 °F 39% 30.01 in - NNW 10.4 mph - N/A   Clear
6:30 AM 80.6 °F - 50.0 °F 34% 30.04 in - NNW 11.5 mph - N/A   Clear
7:00 AM 80 °F - 50 °F 25% 30.03 in - NNW 10.4 mph - -  
7:00 AM 78.8 °F - 50.0 °F 36% 30.04 in - NNW 9.2 mph - N/A   Clear
7:30 AM 78.8 °F - 50.0 °F 36% 30.01 in - NNW 6.9 mph - N/A   Clear
8:00 AM 81 °F - 50 °F 23% 30.03 in 31 mi North 5.8 mph - -   Clear
8:00 AM 80.6 °F - 50.0 °F 34% 30.04 in - North 4.6 mph - N/A   Clear
8:30 AM 82.4 °F - 50.0 °F 32% 30.04 in - North 4.6 mph - N/A   Clear
9:00 AM 86 °F - 53 °F 22% 30.04 in - North 6.9 mph - -  
9:00 AM 86.0 °F - 51.8 °F 31% 30.04 in - North 6.9 mph - N/A   Clear
9:30 AM 87.8 °F - 51.8 °F 29% 30.04 in - NE 15.0 mph - N/A   Clear
10:00 AM 89 °F - 54 °F 21% 30.04 in - ENE 16.1 mph - -  
10:00 AM 87.8 °F 85.7 °F 53.6 °F 31% 30.04 in - ENE 15.0 mph - N/A   Clear
11:00 AM 92 °F - 57 °F 21% 30.03 in 31 mi ENE 18.4 mph - -   Clear
11:00 AM 89.6 °F 88.1 °F 57.2 °F 33% 30.04 in - ENE 16.1 mph - N/A   Clear
11:30 AM 89.6 °F 87.7 °F 55.4 °F 31% 30.04 in - ENE 17.3 mph - N/A   Clear
12:00 PM 93 °F - 57 °F 20% 30.03 in - East 17.3 mph - -  
12:00 PM 91.4 °F 89.9 °F 57.2 °F 31% 30.04 in - ENE 16.1 mph - N/A   Clear
12:30 PM 93.2 °F 91.9 °F 57.2 °F 30% 30.01 in - East 17.3 mph - N/A   Clear
1:00 PM 94 °F - 58 °F 21% 30.01 in - East 18.4 mph - -  
1:00 PM 93.2 °F 92.6 °F 59.0 °F 32% 30.01 in - East 18.4 mph - N/A   Clear
1:30 PM 93.2 °F 92.6 °F 59.0 °F 32% 30.01 in - East 17.3 mph - N/A   Clear
2:00 PM 95.0 °F 93.7 °F 57.2 °F 28% 30.01 in - East 17.3 mph - N/A   Clear
2:30 PM 95.0 °F 94.4 °F 59.0 °F 30% 29.98 in - East 18.4 mph - N/A   Clear
3:00 PM 96 °F - 58 °F 19% 29.98 in - East 20.7 mph - -  
3:00 PM 95.0 °F 94.4 °F 59.0 °F 30% 29.98 in - East 19.6 mph - N/A   Clear
3:30 PM 95.0 °F 94.4 °F 59.0 °F 30% 29.98 in - East 19.6 mph - N/A   Clear
4:00 PM 96 °F - 56 °F 18% 29.97 in - East 21.9 mph - -  
4:00 PM 95.0 °F 93.7 °F 57.2 °F 28% 29.95 in - East 20.7 mph - N/A   Clear
4:30 PM 95.0 °F 93.7 °F 57.2 °F 28% 29.95 in - East 19.6 mph - N/A   Clear
5:00 PM 95.0 °F 93.7 °F 57.2 °F 28% 29.95 in - East 20.7 mph - N/A   Clear
5:30 PM 93.2 °F 92.6 °F 59.0 °F 32% 29.95 in - East 20.7 mph - N/A   Clear
6:00 PM 93 °F - 59 °F 22% 29.95 in - ENE 20.7 mph - -  
6:00 PM 91.4 °F 90.7 °F 59.0 °F 34% 29.95 in - ENE 20.7 mph - N/A   Clear
6:30 PM 91.4 °F 90.7 °F 59.0 °F 34% 29.92 in - East 20.7 mph - N/A   Clear
7:00 PM 90 °F - 61 °F 27% 29.93 in - ENE 19.6 mph - -  
7:00 PM 89.6 °F 89.5 °F 60.8 °F 38% 29.92 in - ENE 19.6 mph - N/A   Clear
7:30 PM 87.8 °F 87.1 °F 59.0 °F 38% 29.92 in - ENE 19.6 mph - N/A   Clear
8:00 PM 87 °F - 59 °F 29% 29.94 in 28 mi ENE 19.6 mph - -   Partly Cloudy
8:00 PM 86.0 °F 85.4 °F 59.0 °F 40% 29.95 in - ENE 18.4 mph - N/A   Clear
8:30 PM 86.0 °F 86.6 °F 62.6 °F 45% 29.95 in - ENE 17.3 mph - N/A   Clear
9:00 PM 85 °F - 60 °F 33% 29.96 in - ENE 15.0 mph - -  
9:00 PM 86.0 °F 86.1 °F 60.8 °F 43% 29.95 in - ENE 15.0 mph - N/A   Clear
9:30 PM 86.0 °F 84.9 °F 57.2 °F 37% 29.95 in - ENE 17.3 mph - N/A   Clear
10:00 PM 86 °F - 55 °F 25% 29.96 in - ENE 15.0 mph - -  
10:00 PM 86.0 °F 84.5 °F 55.4 °F 35% 29.95 in - ENE 15.0 mph - N/A   Clear
10:30 PM 86.0 °F 84.2 °F 53.6 °F 33% 29.98 in - ENE 13.8 mph - N/A   Clear
11:00 PM 85 °F - 51 °F 21% 29.99 in - ENE 10.4 mph - -  
11:00 PM 86.0 °F - 51.8 °F 31% 29.98 in - ENE 9.2 mph - N/A   Clear
11:30 PM 84.2 °F 82.8 °F 53.6 °F 35% 29.98 in - East 12.7 mph - N/A   Clear